Location: Syracuse
(43.0480°N, 76.1480°W)
Time: 17:17:18
(UTC-05:00)

Daily predictions for brighter satellites

Satellite Brightness Start Highest point End
(mag) Time Altitude Azimuth Time Altitude Azimuth Time Altitude Azimuth
BREEZE-M DEB (TANK) 4.0 16:51:52 10° WNW 17:01:02 82° SSW 17:04:53 10° SE
COSMOS 2406 3.5 16:56:03 10° NNW 17:01:34 47° ENE 17:07:06 10° SE
Cosmos 1048 Rocket 4.1 16:56:32 10° NNW 17:01:47 59° ENE 17:07:04 10° SSE
ISS -1.6 17:00:33 10° S 17:03:07 21° SE 17:05:42 10° E
Cosmos 2278 Rocket 3.9 17:02:26 10° ESE 17:04:54 13° E 17:07:24 10° ENE
Cosmos 158 Rocket 4.4 16:59:59 10° N 17:05:09 44° ENE 17:10:12 10° SE
SL-16 R/B 4.5 17:00:59 10° N 17:05:51 25° WNW 17:10:44 10° WSW
Meteor 1-5 Rocket 4.3 17:07:28 10° N 17:12:42 49° ENE 17:18:01 10° SSE
SPOT 3 Rocket 3.5 17:12:14 10° SSE 17:17:22 65° ENE 17:22:31 10° N
CZ-2C R/B 2.5 17:12:35 10° SSE 17:17:26 62° ENE 17:22:27 10° N
Cosmos 1484 Rocket 3.8 17:18:12 10° ESE 17:21:12 23° ENE 17:24:11 10° NNE
Cosmos 1602 4.5 17:17:56 10° NNW 17:21:49 58° W 17:25:38 10° S
ATLAS CENTAUR R/B 4.1 17:21:23 10° WNW 17:23:12 12° NNW 17:24:59 10° N
Cosmos 1238 Rocket 3.6 17:22:09 10° SE 17:24:18 18° E 17:25:30 15° ENE
PAYLOAD A 4.1 17:20:39 10° S 17:25:24 75° WSW 17:30:21 10° NNW
Cosmos 2082 Rocket 3.8 17:24:35 10° NNE 17:27:31 14° NE 17:28:55 13° ENE
BREEZE M DEB (TANK) 4.5 17:18:37 10° SSW 17:27:31 27° SSE 17:30:49 12° E
CRYOSAT 2 4.4 17:23:06 10° N 17:27:59 64° E 17:32:50 10° S
Cosmos 2154 Rocket 4.5 17:22:39 10° NNW 17:28:49 66° W 17:35:00 10° S
IDEFIX/ARIANE 42P 2.5 17:26:12 10° SSE 17:31:24 80° ENE 17:36:37 10° N
USA 32 4.1 17:30:44 10° SSE 17:35:49 56° E 17:40:57 10° NNE
Cosmos 1833 Rocket 4.3 17:32:59 10° NNE 17:35:51 14° NE 17:36:28 14° NE
BREEZE M DEB (TANK) 3.4 17:35:22 10° WNW 17:38:09 36° NNE 17:42:21 17° ENE
Okean 1 Rocket 4.5 17:34:10 10° NNW 17:38:15 41° W 17:42:18 10° SSW
Cosmos 1536 3.4 17:35:07 10° NNW 17:39:08 62° W 17:43:09 10° S
Okean 1 4.4 17:37:10 10° SE 17:40:27 24° E 17:42:08 19° NE
COSMO-SKYMED 1 3.2 17:39:19 10° NNE 17:43:18 36° E 17:47:17 10° SSE
Cosmos 1544 Rocket 3.6 17:41:14 10° N 17:45:39 60° E 17:50:04 10° SSE
USA 234 3.8 17:42:38 12° NE 17:48:33 52° NNW 17:54:49 10° WSW
Cosmos 1975 Rocket 3.4 17:45:00 10° SSW 17:49:17 68° W 17:53:36 10° N
Cosmos 372 Rocket 4.2 17:45:07 10° SSW 17:50:22 75° WNW 17:55:39 10° NNE
MSX 3.8 17:44:40 10° SSE 17:50:25 81° ENE 17:56:12 10° NNW
SMAP 3.6 17:47:07 10° S 17:51:43 62° W 17:56:21 10° NNW
Meteor 1-28 Rocket 4.3 17:54:50 25° E 17:54:50 25° E 17:57:59 10° SSE
Thor Agena Rocket 4.0 17:50:36 10° N 17:55:44 65° WNW 18:00:54 10° SSW
Cosmos 2263 Rocket 4.0 17:51:47 10° WSW 17:56:27 26° NW 18:01:10 10° N
CZ-3B DEB 2.2 17:55:27 10° SSW 17:59:08 64° SE 18:05:05 20° NE
CZ-4 R/B 3.3 17:56:20 10° SSW 18:00:11 35° W 18:04:01 10° NNW
Cosmos 1346 Rocket 4.0 18:00:40 10° SSE 18:02:56 23° ESE 18:02:56 23° ESE
Cosmos 1536 Rocket 3.6 18:01:24 10° S 18:05:45 56° E 18:09:12 16° NNE
Cosmos 494 Rocket 3.9 18:00:53 10° NNW 18:06:06 63° ENE 18:11:18 10° SSE
Cosmos 1812 2.6 18:05:39 10° S 18:09:29 76° E 18:12:08 19° NNE
SL-8 Rocket 4.3 18:03:22 10° NNW 18:09:30 69° W 18:15:35 10° S
ATLAS 2AS CENTAUR R/B 3.0 18:01:47 10° NW 18:09:58 80° NE 18:17:34 10° SE
Meteor 1-12 Rocket 4.2 18:05:57 10° N 18:11:44 76° E 18:17:35 10° SSE
YAOGAN 1 4.1 18:08:16 10° SSW 18:12:17 38° W 18:16:21 10° NNW
Cosmos 2251 Rocket 3.4 18:07:19 10° NNW 18:12:43 83° ENE 18:18:02 10° SSE
SKYMED 3 4.4 18:09:41 14° NNE 18:13:25 77° ESE 18:17:44 10° S
Cosmos 2366 rocket 4.1 18:12:38 10° N 18:19:02 80° W 18:25:20 10° S
Abrixas 4.1 18:16:30 10° WNW 18:18:36 25° NNW 18:18:36 25° NNW
Cosmos 2218 Rocket 4.3 18:13:07 10° NNW 18:19:24 70° W 18:25:34 10° S
Cosmos 1975 2.7 18:15:21 10° N 18:19:27 70° E 18:23:28 10° SSE
OTV 4 2.7 18:20:32 10° WSW 18:22:45 19° SSW 18:23:24 18° S
Cosmos 1844 Rocket 3.0 18:17:19 10° SW 18:22:50 64° WNW 18:27:30 15° NNE
Timation 2 Rocket 4.5 18:19:24 10° NNW 18:25:51 44° NE 18:28:08 34° E
SL-27 R/B 3.7 18:26:05 10° NNW 18:29:36 44° WSW 18:33:05 10° S
Cosmos 1844 3.8 18:24:15 10° SSW 18:29:48 75° WNW 18:33:29 22° NNE
GEOS 3 Rocket 4.0 18:25:17 10° SSE 18:30:21 64° SW 18:35:27 10° NW
SKYMED 2 3.8 18:27:57 15° N 18:31:27 68° WNW 18:35:45 10° SSW
DMSP B5D1-3 4.4 18:27:57 16° NNE 18:32:08 85° ESE 18:37:16 10° SSW
Cosmos 1241 Rocket 4.5 18:28:38 10° NNW 18:35:16 73° NE 18:39:44 22° SE
Cosmos 1455 Rocket 3.9 18:31:13 10° NNW 18:35:29 50° W 18:39:44 10° SSW
SL-8 R/B 4.0 18:34:25 10° SW 18:39:00 49° SE 18:39:03 49° SE
ISS -2.3 18:36:10 10° WSW 18:38:49 45° WNW 18:38:49 45° WNW
BREEZE-M R/B 3.6 18:37:05 10° SW 18:46:40 80° SSE 18:47:38 61° E
Cosmos 2239 Rocket 4.4 18:40:59 10° N 18:47:07 57° ENE 18:53:10 10° SSE
Cosmos 2278 Rocket 2.1 18:42:29 10° SSW 18:48:08 86° WNW 18:50:04 44° NNE
Meteor 1-13 Rocket 4.1 18:43:43 10° S 18:49:18 70° E 18:50:26 55° NE
Cosmos 1809 Rocket 4.5 18:45:32 10° N 18:51:43 79° W 18:57:49 10° S
Cosmos 1821 Rocket 3.9 18:48:49 10° N 19:01:32 - SSE 18:54:31 61° ENE
Cosmos 2082 Rocket 2.8 19:06:56 10° NNW 19:10:50 45° N 19:10:50 45° N
Nadezhda 3 Rocket 4.3 19:09:31 10° SSW 19:15:38 63° W 19:21:21 13° N
Cosmos 1833 Rocket 3.8 19:15:10 10° NNW 19:18:13 33° NNW 19:18:13 33° NNW
USA 234 4.5 19:29:59 28° N 19:30:39 28° N 19:36:01 10° WNW
FALCON 9 R/B 3.8 19:50:22 10° WSW 20:01:52 41° SSW 20:01:52 41° SSW
CZ-3B DEB 4.2 20:29:26 10° WNW 20:34:11 42° NNW 20:34:11 42° NNW
